Location: Newark
(45.5000°N, 11.4167°E)
Time: 18:53:31
(UTC+00:00)

Tiros 1 despin weight - Visible Passes

Search period start: 24 August 2019 00:00
Search period end: 03 September 2019 00:00
Orbit: 594 x 642 km, 48.2° (Epoch: 24 August)

Date Brightness Start Highest point End Pass type
(mag) Time Alt. Az. Time Alt. Az. Time Alt. Az.
24 Aug ? 01:00:00 42° ENE 01:00:00 42° ENE 01:03:14 10° E visible
24 Aug ? 02:37:05 18° WNW 02:40:30 90° NNE 02:45:07 10° ESE visible
25 Aug ? 01:16:19 52° ENE 01:16:19 52° ENE 01:20:00 10° E visible
25 Aug ? 02:53:25 15° WNW 02:57:06 63° SSW 03:01:39 10° SE visible
26 Aug ? 01:32:55 60° E 01:32:55 60° E 01:36:45 10° ESE visible
26 Aug ? 03:10:02 14° W 03:13:35 39° SSW 03:17:52 10° SE visible
27 Aug ? 01:49:54 51° SE 01:49:54 51° SE 01:53:23 10° ESE visible
27 Aug ? 03:27:03 13° W 03:29:57 23° SW 03:33:35 10° SSE visible
28 Aug ? 02:07:19 30° SSE 02:07:19 30° SSE 02:09:49 10° SE visible
28 Aug ? 03:44:30 11° WSW 03:46:12 13° SW 03:48:14 10° SSW visible
28 Aug ? 19:32:20 10° SSW 19:34:41 21° SSE 19:34:41 21° SSE visible
29 Aug ? 02:25:10 13° SSE 02:25:10 13° SSE 02:25:51 10° SSE visible
29 Aug ? 19:48:06 10° SW 19:51:56 39° SSE 19:51:56 39° SSE visible
30 Aug ? 18:24:56 10° S 18:27:45 17° SE 18:30:35 10° E visible
30 Aug ? 20:04:20 10° SW 20:08:42 65° SSE 20:08:44 65° SSE visible
31 Aug ? 18:40:14 10° SSW 18:44:03 29° SE 18:47:54 10° E visible
31 Aug ? 20:20:52 10° WSW 20:25:12 85° WNW 20:25:12 85° WNW visible
01 Sep ? 18:56:12 10° SW 19:00:28 49° SSE 19:04:19 12° ENE visible
01 Sep ? 20:37:34 10° W 20:41:24 60° WNW 20:41:24 60° WNW visible
02 Sep ? 19:12:36 10° WSW 19:17:00 77° SSE 19:20:21 17° ENE visible
02 Sep ? 20:54:20 10° W 20:57:24 41° WNW 20:57:24 41° WNW visible
